| time (UTC) | temp F | wind direction | speed MPH | gust MPH | rain 1hr in | rain 24hr in | rain mn in | humidity % | barometer mb |
| 20260505011526 | 72 | 172 | 0.0 | 3.0 | 0.00 | 0.00 | 0.00 | 54 | 1010.3 |
| 20260505010020 | 73 | 160 | 1.0 | 5.0 | 0.00 | 0.00 | 0.00 | 52 | 1010.3 |
| 20260505004520 | 73 | 157 | 1.0 | 6.0 | 0.00 | 0.00 | 0.00 | 50 | 1010.2 |
| 20260505003041 | 74 | 159 | 2.0 | 5.0 | 0.00 | 0.00 | 0.00 | 50 | 1010.1 |
| 20260505001521 | 75 | 169 | 1.0 | 5.0 | 0.00 | 0.00 | 0.00 | 49 | 1010.1 |
| 20260505000018 | 75 | 165 | 1.0 | 6.0 | 0.00 | 0.00 | 0.00 | 48 | 1010.1 |
| 20260504234523 | 76 | 220 | 3.0 | 14.0 | 0.00 | 0.00 | 0.00 | 47 | 1010.2 |
| 20260504233022 | 77 | 186 | 2.0 | 9.0 | 0.00 | 0.00 | 0.00 | 46 | 1010.3 |
| 20260504231525 | 78 | 236 | 4.0 | 12.0 | 0.00 | 0.00 | 0.00 | 46 | 1010.3 |
| 20260504230023 | 78 | 188 | 3.0 | 10.0 | 0.00 | 0.00 | 0.00 | 44 | 1010.4 |
| 20260504224522 | 78 | 167 | 3.0 | 15.0 | 0.00 | 0.00 | 0.00 | 44 | 1010.3 |
| 20260504223024 | 79 | 158 | 3.0 | 11.0 | 0.00 | 0.00 | 0.00 | 43 | 1010.4 |
| 20260504221522 | 79 | 171 | 6.0 | 13.0 | 0.00 | 0.00 | 0.00 | 42 | 1010.5 |
| 20260504220021 | 80 | 158 | 4.0 | 11.0 | 0.00 | 0.00 | 0.00 | 42 | 1010.4 |
| 20260504214523 | 80 | 207 | 4.0 | 14.0 | 0.00 | 0.00 | 0.00 | 42 | 1010.6 |
| 20260504213027 | 80 | 150 | 6.0 | 14.0 | 0.00 | 0.00 | 0.00 | 42 | 1010.5 |
| 20260504211534 | 79 | 188 | 5.0 | 12.0 | 0.00 | 0.00 | 0.00 | 42 | 1010.7 |
| 20260504210022 | 80 | 252 | 5.0 | 10.0 | 0.00 | 0.00 | 0.00 | 42 | 1011.0 |
| 20260504204521 | 80 | 212 | 6.0 | 11.0 | 0.00 | 0.00 | 0.00 | 41 | 1011.1 |
| 20260504203021 | 80 | 158 | 3.0 | 12.0 | 0.00 | 0.00 | 0.00 | 43 | 1011.2 |
| 20260504201519 | 80 | 223 | 4.0 | 11.0 | 0.00 | 0.00 | 0.00 | 43 | 1011.5 |
| 20260504200024 | 80 | 198 | 5.0 | 15.0 | 0.00 | 0.00 | 0.00 | 43 | 1011.8 |
| 20260504194525 | 80 | 174 | 5.0 | 11.0 | 0.00 | 0.00 | 0.00 | 41 | 1011.9 |
| 20260504193024 | 80 | 282 | 3.0 | 14.0 | 0.00 | 0.00 | 0.00 | 44 | 1012.4 |
| 20260504191509 | 80 | 276 | 4.0 | 15.0 | 0.00 | 0.00 | 0.00 | 44 | 1012.4 |
| 20260504190016 | 80 | 247 | 2.0 | 19.0 | 0.00 | 0.00 | 0.00 | 45 | 1012.5 |
| 20260504184536 | 79 | 162 | 3.0 | 14.0 | 0.00 | 0.00 | 0.00 | 45 | 1012.7 |
| 20260504183021 | 79 | 238 | 6.0 | 15.0 | 0.00 | 0.00 | 0.00 | 44 | 1013.1 |
| 20260504181523 | 79 | 179 | 4.0 | 11.0 | 0.00 | 0.00 | 0.00 | 44 | 1013.1 |
| 20260504180024 | 79 | 210 | 4.0 | 9.0 | 0.00 | 0.00 | 0.00 | 48 | 1013.3 |
| 20260504174523 | 78 | 207 | 3.0 | 14.0 | 0.00 | 0.00 | 0.00 | 46 | 1013.4 |
| 20260504173025 | 77 | 179 | 5.0 | 10.0 | 0.00 | 0.00 | 0.00 | 50 | 1013.6 |
| 20260504171525 | 77 | 206 | 4.0 | 13.0 | 0.00 | 0.00 | 0.00 | 48 | 1013.8 |
| 20260504081507 | 60 | 154 | 1.0 | 4.0 | 0.00 | 0.00 | 0.00 | 71 | 1014.6 |
| 20260504050021 | 59 | 82 | 0.0 | 0.0 | 0.00 | 0.00 | 0.00 | 71 | 1016.2 |
| 20260504044517 | 59 | 155 | 0.0 | 0.0 | 0.00 | 0.00 | 0.00 | 70 | 1016.2 |
| 20260504043018 | 59 | 155 | 0.0 | 0.0 | 0.00 | 0.00 | 0.00 | 68 | 1016.2 |
| 20260504041529 | 60 | 155 | 0.0 | 2.0 | 0.00 | 0.00 | 0.00 | 68 | 1016.1 |
| 20260504040016 | 60 | 161 | 0.0 | 0.0 | 0.00 | 0.00 | 0.00 | 67 | 1016.2 |
| 20260504034518 | 61 | 161 | 0.0 | 0.0 | 0.00 | 0.00 | 0.00 | 66 | 1016.4 |
| 20260504033015 | 61 | 161 | 0.0 | 0.0 | 0.00 | 0.00 | 0.00 | 65 | 1016.4 |
| 20260504031516 | 61 | 161 | 0.0 | 0.0 | 0.00 | 0.00 | 0.00 | 64 | 1016.4 |
| 20260504030016 | 62 | 161 | 0.0 | 0.0 | 0.00 | 0.00 | 0.00 | 64 | 1016.5 |
| 20260504024520 | 62 | 161 | 0.0 | 0.0 | 0.00 | 0.00 | 0.00 | 63 | 1016.5 |
| 20260504023017 | 62 | 161 | 0.0 | 0.0 | 0.00 | 0.00 | 0.00 | 62 | 1016.5 |
| 20260504021516 | 63 | 161 | 0.0 | 0.0 | 0.00 | 0.00 | 0.00 | 61 | 1016.5 |
| 20260504020021 | 64 | 161 | 0.0 | 0.0 | 0.00 | 0.00 | 0.00 | 59 | 1016.4 |
| 20260504014526 | 64 | 161 | 0.0 | 0.0 | 0.00 | 0.00 | 0.00 | 58 | 1016.3 |
| 20260504013022 | 65 | 161 | 0.0 | 0.0 | 0.00 | 0.00 | 0.00 | 57 | 1016.1 |